Voltar ao catálogo

COSMOS 2308

GLONASS

AtivoNavegaçãoMEO
NORAD 23512·PAYLOAD·🇷🇺 Russia

Lançado Mar 7, 1995 de Baikonur Cosmodrome

Loading…

Próximas Passagens (próximas 24 horas)

TLE

EnvelhecendoSource: Space-Track

Época: Aug 31, 2026, 10:14 UTC

1 23512U 95009B   26243.42690065 -.00000003  00000-0  00000+0 0  9998
2 23512  63.9506 298.4484 0005118 310.0138 139.1018  2.13099954244818

Acompanhe COSMOS 2308 em tempo real com AllMySat

Download on the App Store